{"data":{"norad_id":62253,"epoch":"2026-09-22T21:48:23.958432Z","epoch_age_seconds":101750,"freshness":"FRESH","line1":"1 62253U 24232S   26265.90861063  .00000085  00000+0  11197-3 0  9999","line2":"2 62253  89.0161  12.5863 0017252  93.0764 267.2362 13.51031483106314","mean_motion":13.51031483,"eccentricity":0.0017252,"inclination_deg":89.0161,"raan_deg":12.5863,"arg_perigee_deg":93.0764,"mean_anomaly_deg":267.2362,"bstar":0.00011197,"rev_number":10631,"period_min":106.58522899869,"perigee_km":1055.6190185394,"apogee_km":1081.3127771782,"semimajor_km":7446.6028978588,"source":"CELESTRAK","updated_at":"2026-09-23T09:00:21.337325Z"}}